Weather reports worldwide

Advertisment
Kilis, Turkey (17262): temperature & dewpoint: 09.12.2019 21:00:00 - 15.12.2019 21:00:00 (EET)Kilis, Turkey (17262): wind speed: 09.12.2019 21:00:00 - 15.12.2019 21:00:00 (EET)Kilis, Turkey (17262): wind direction: 09.12.2019 21:00:00 - 15.12.2019 21:00:00 (EET)Kilis, Turkey (17262): reduced air pressure: 09.12.2019 21:00:00 - 15.12.2019 21:00:00 (EET)Kilis, Turkey (17262): visibility: 09.12.2019 21:00:00 - 15.12.2019 21:00:00 (EET)
Date & Time tt [°C] td [°C] ff [km/h] ff [kn] dd ppp [hPa] vv [km]
15.12.2019 21:00:00 - - - - - - -
15.12.2019 20:00:00 8,4 6,7 0 0 N 1022,3 20
15.12.2019 19:00:00 8,8 7,6 0 0 N 1022,2 20
15.12.2019 18:00:00 8,7 7,5 0 0 N 1021,9 20
15.12.2019 17:00:00 9,4 8,0 0 0 N 1021,5 20
15.12.2019 16:00:00 10,7 8,5 4 2 ESE 1020,5 20
15.12.2019 15:00:00 10,9 8,5 9 5 E 1020,0 20
15.12.2019 14:00:00 10,8 7,5 9 5 E 1019,7 20
15.12.2019 13:00:00 10,5 7,9 13 7 ENE 1019,6 20
15.12.2019 12:00:00 10,2 7,9 9 5 ENE 1019,9 20
15.12.2019 11:00:00 9,5 7,7 13 7 E 1020,4 20
15.12.2019 10:00:00 9,2 7,7 9 5 ENE 1020,7 20
15.12.2019 09:00:00 8,8 7,7 11 6 E 1020,4 20
15.12.2019 08:00:00 8,3 7,4 11 6 E 1019,9 20
15.12.2019 07:00:00 - - - - - - -
15.12.2019 06:00:00 - - - - - - -
15.12.2019 05:00:00 - - - - - - -
15.12.2019 04:00:00 - - - - - - -
15.12.2019 03:00:00 - - - - - - -
15.12.2019 02:00:00 - - - - - - -
15.12.2019 01:00:00 - - - - - - -
15.12.2019 00:00:00 - - - - - - -
14.12.2019 23:00:00 - - - - - - -
14.12.2019 22:00:00 - - - - - - -
14.12.2019 21:00:00 - - - - - - -
14.12.2019 20:00:00 8,7 7,9 0 0 N 1017,0 5
14.12.2019 19:00:00 8,8 8,0 4 2 E 1016,5 6
14.12.2019 18:00:00 8,8 8,0 2 1 ESE 1015,9 5
14.12.2019 17:00:00 8,9 8,1 4 2 SE 1015,7 4,5
14.12.2019 16:00:00 9,2 8,3 5 3 SE 1015,4 5
14.12.2019 15:00:00 9,0 8,1 8 4 SE 1015,3 4,5
14.12.2019 14:00:00 9,1 8,2 5 3 SE 1015,0 7
14.12.2019 13:00:00 9,1 8,3 8 4 ESE 1014,8 7
14.12.2019 12:00:00 8,7 7,9 11 6 E 1015,2 6
14.12.2019 11:00:00 8,6 7,8 11 6 E 1015,9 4,0
14.12.2019 10:00:00 8,5 7,7 9 5 E 1016,5 6
14.12.2019 09:00:00 8,3 7,4 9 5 E 1016,6 1,3
14.12.2019 08:00:00 8,2 7,3 11 6 E 1016,3 1,0
14.12.2019 07:00:00 - - - - - - -
14.12.2019 06:00:00 - - - - - - -
14.12.2019 05:00:00 - - - - - - -
14.12.2019 04:00:00 - - - - - - -
14.12.2019 03:00:00 - - - - - - -
14.12.2019 02:00:00 - - - - - - -
14.12.2019 01:00:00 - - - - - - -
14.12.2019 00:00:00 - - - - - - -
13.12.2019 23:00:00 - - - - - - -
13.12.2019 22:00:00 - - - - - - -
13.12.2019 21:00:00 - - - - - - -
13.12.2019 20:00:00 7,8 6,3 13 7 ENE 1016,2 20
13.12.2019 19:00:00 7,8 6,3 11 6 ENE 1016,3 10
13.12.2019 18:00:00 7,7 6,2 9 5 ENE 1015,9 10
13.12.2019 17:00:00 7,7 6,2 11 6 E 1015,5 10
13.12.2019 16:00:00 8,0 6,2 9 5 E 1015,4 10
13.12.2019 15:00:00 8,0 6,3 11 6 E 1014,7 10
13.12.2019 14:00:00 7,9 6,4 8 4 E 1014,7 10
13.12.2019 13:00:00 7,3 6,1 11 6 E 1014,9 10
13.12.2019 12:00:00 7,0 5,9 11 6 E 1015,3 5
13.12.2019 11:00:00 6,9 5,8 11 6 E 1015,6 20
13.12.2019 10:00:00 6,9 5,7 9 5 E 1015,9 20
13.12.2019 09:00:00 7,1 5,6 11 6 ENE 1014,9 20
13.12.2019 08:00:00 6,8 5,2 9 5 ENE 1014,3 20
13.12.2019 07:00:00 - - - - - - -
13.12.2019 06:00:00 - - - - - - -
13.12.2019 05:00:00 - - - - - - -
13.12.2019 04:00:00 - - - - - - -
13.12.2019 03:00:00 - - - - - - -
13.12.2019 02:00:00 - - - - - - -
13.12.2019 01:00:00 - - - - - - -
13.12.2019 00:00:00 - - - - - - -
12.12.2019 23:00:00 - - - - - - -
12.12.2019 22:00:00 - - - - - - -
12.12.2019 21:00:00 - - - - - - -
12.12.2019 20:00:00 7,0 5,7 18 10 ENE 1012,1 10
12.12.2019 19:00:00 7,2 5,9 21 11 ENE 1012,2 10
12.12.2019 18:00:00 7,3 6,1 15 8 ENE 1011,6 10
12.12.2019 17:00:00 7,4 6,3 15 8 ENE 1011,9 10
12.12.2019 16:00:00 7,4 6,3 16 9 ENE 1012,1 15
12.12.2019 15:00:00 7,3 6,2 18 10 E 1012,1 20
12.12.2019 14:00:00 7,6 6,0 16 9 E 1012,3 20
12.12.2019 13:00:00 7,5 6,1 21 11 E 1012,8 20
12.12.2019 12:00:00 7,5 6,1 22 12 E 1013,8 20
12.12.2019 11:00:00 7,5 5,9 22 12 ENE 1014,7 20
12.12.2019 10:00:00 7,0 5,7 22 12 E 1015,5 20
12.12.2019 09:00:00 6,8 5,6 18 10 E 1016,3 10
12.12.2019 08:00:00 6,8 5,6 21 11 E 1016,6 10
12.12.2019 07:00:00 - - - - - - -
12.12.2019 06:00:00 - - - - - - -
12.12.2019 05:00:00 - - - - - - -
12.12.2019 04:00:00 - - - - - - -
12.12.2019 03:00:00 - - - - - - -
12.12.2019 02:00:00 - - - - - - -
12.12.2019 01:00:00 - - - - - - -
12.12.2019 00:00:00 - - - - - - -
11.12.2019 23:00:00 - - - - - - -
11.12.2019 22:00:00 - - - - - - -
11.12.2019 21:00:00 - - - - - - -
11.12.2019 20:00:00 7,7 4,9 8 4 ENE 1020,4 20
11.12.2019 19:00:00 7,8 4,7 8 4 ENE 1020,1 20
11.12.2019 18:00:00 7,9 5,5 5 3 ENE 1020,4 20
11.12.2019 17:00:00 7,9 5,6 11 6 E 1020,0 20
11.12.2019 16:00:00 8,1 5,5 11 6 E 1019,9 20
11.12.2019 15:00:00 8,4 5,6 11 6 ENE 1019,7 20
11.12.2019 14:00:00 8,6 5,5 13 7 E 1019,9 20
11.12.2019 13:00:00 8,7 5,6 9 5 E 1020,3 20
11.12.2019 12:00:00 8,6 5,1 8 4 E 1020,6 20
11.12.2019 11:00:00 7,9 5,3 11 6 E 1021,5 20
11.12.2019 10:00:00 8,0 5,5 9 5 E 1021,7 20
11.12.2019 09:00:00 7,6 5,1 11 6 E 1021,7 20
11.12.2019 08:00:00 6,7 4,8 9 5 ENE 1021,4 20
11.12.2019 07:00:00 - - - - - - -
11.12.2019 06:00:00 - - - - - - -
11.12.2019 05:00:00 - - - - - - -
11.12.2019 04:00:00 - - - - - - -
11.12.2019 03:00:00 - - - - - - -
11.12.2019 02:00:00 - - - - - - -
11.12.2019 01:00:00 - - - - - - -
11.12.2019 00:00:00 - - - - - - -
10.12.2019 23:00:00 - - - - - - -
10.12.2019 22:00:00 - - - - - - -
10.12.2019 21:00:00 - - - - - - -
10.12.2019 20:00:00 7,8 4,8 0 0 N 1019,7 20
10.12.2019 19:00:00 8,0 4,8 2 1 S 1019,4 20
10.12.2019 18:00:00 7,9 4,7 8 4 ENE 1018,4 20
10.12.2019 17:00:00 7,9 4,8 0 0 N 1017,9 20
10.12.2019 16:00:00 8,2 4,8 5 3 ENE 1017,6 20
10.12.2019 15:00:00 8,6 5,1 8 4 E 1017,2 20
10.12.2019 14:00:00 8,5 5,0 9 5 ENE 1016,7 20
10.12.2019 13:00:00 7,9 5,8 8 4 ENE 1017,0 20
10.12.2019 12:00:00 8,3 5,3 9 5 ENE 1017,0 20
10.12.2019 11:00:00 8,4 5,5 15 8 E 1017,3 20
10.12.2019 10:00:00 8,4 6,1 13 7 ENE 1017,4 20
10.12.2019 09:00:00 8,1 5,8 11 6 ENE 1017,2 20
10.12.2019 08:00:00 7,5 5,7 9 5 ENE 1017,0 20
10.12.2019 07:00:00 - - - - - - -
10.12.2019 06:00:00 - - - - - - -
10.12.2019 05:00:00 - - - - - - -
10.12.2019 04:00:00 - - - - - - -
10.12.2019 03:00:00 - - - - - - -
10.12.2019 02:00:00 - - - - - - -
10.12.2019 01:00:00 - - - - - - -
10.12.2019 00:00:00 - - - - - - -
09.12.2019 23:00:00 - - - - - - -
09.12.2019 22:00:00 - - - - - - -
09.12.2019 21:00:00 - - - - - - -

tt = temperature
td = dewpoint
ff = wind speed
dd = wind direction
ppp = reduced air pressure
vv = visibility

Next stations